Regional Weather Roundup
Issued by NWS

Home | Current Version | Previous Version | Graphics & Text | Print | Product List | Glossary On
Versions: 1 2 3 4 5 6 7 8 9 10 11 12 13 14 15 16 17 18 19 20 21 22 23 24 25 26 27 28 29 30 31 32 33 34 35 36 37 38 39 40 41 42 43 44 45 46 47 48 49 50
000
ASUS43 KLMK 212210
RWRKY
KENTUCKY REGIONAL WEATHER ROUNDUP
NATIONAL WEATHER SERVICE LOUISVILLE KY
500 PM EST TUE NOV 21 2017

NOTE "FAIR" INDICATES FEW OR NO CLOUDS BELOW 12,000 FEET
WITH NO SIGNIFICANT WEATHER AND/OR OBSTRUCTIONS TO VISIBILITY.

KYZ001>023-026-027-061>063-070>075-212300-
WESTERN AND SOUTH CENTRAL KENTUCKY

CITY           SKY/WX    TMP DP  RH WIND       PRES   REMARKS
PADUCAH        CLOUDY    56  38  50 W5        30.00R
HENDERSON      MOCLDY    54  38  54 SW9       29.99R
OWENSBORO      MOCLDY    54  36  50 W6        30.00R
HOPKINSVILLE   PTCLDY    54  34  46 SW9       30.00R
BOWLING GREEN  CLOUDY    56  30  37 W7        30.00R
GLASGOW        CLEAR     55  27  34 W6        29.99R
$$

KYZ024-025-028>034-038-045-046-053-212300-
NORTH CENTRAL KENTUCKY

CITY           SKY/WX    TMP DP  RH WIND       PRES   REMARKS
LOUISVILLE/SDF MOCLDY    56  31  38 SW10      29.96S
LOUISVILLE/LOU PTCLDY    55  32  41 SW8       29.97R
FORT KNOX      MOCLDY    54  32  43 SW7       29.96R
$$

KYZ035>037-039>044-047>052-055>060-089>105-212300-
NORTHEAST KENTUCKY

CITY           SKY/WX    TMP DP  RH WIND       PRES   REMARKS
LEXINGTON      PTCLDY    56  30  37 W9        29.97R
COVINGTON      CLOUDY    53  31  42 SW7       29.94R
FRANKFORT      PTCLDY    55  27  34 SW8       29.95S
$$

KYZ054-064>069-076>088-106>120-212300-
SOUTHEAST KENTUCKY

CITY           SKY/WX    TMP DP  RH WIND       PRES   REMARKS
JACKSON        CLEAR     60  44  55 VRB7      29.95F
LONDON         CLEAR     60  43  53 SW8       29.95F
SOMERSET       PTCLDY    59  37  44 W7        29.97S
MIDDLESBORO    CLEAR     59  49  68 SW7G18    30.00S
MONTICELLO     PTCLDY    59  40  49 W16       29.98F
$$




USA.gov is the U.S. government's official web portal to all federal, state and local government web resources and services.